sat.trackr.live / text

‹ back to catalog

STARLINK-34789

NORAD 65022 · 2025-161H

PAYLOAD ACTIVE UNKNOWN

§ Identity

Operator
Country
US
Launch date
2025-07-30
Launch site
AFWTR
Launch vehicle
Mass (kg)
RCS (m²)

Purposes: comms

External: N2YO · Heavens-Above · Gunter

§ Orbital elements

Epoch: 2026-09-19T23:54:44.903520Z

Period
93.85 min
Inclination
53.1572°
Eccentricity
0.0001265
Mean motion
15.34356789 rev/d
Perigee alt
462.0 km
Apogee alt
463.7 km
Semi-major
6,841.0 km
B*
-3.4287e-4
RAAN
109.9278°
Arg perigee
84.2557°
Mean anomaly
275.8590°
Rev number
6,509

§ Raw data

STARLINK-347891 65022U 25161H   26262.99635305 -.00011927  00000+0 -34287-3 0  99962 65022  53.1572 109.9278 0001265  84.2557 275.8590 15.34356789 65098

JSON: /api/v1/satellites/65022 · /tle

For live sub-satellite position, see the globe view (requires WebGL).

§ Visibility from observer

Set your observer location to see the next 7 days of passes ≥ 10°. The values pass through the URL so the page stays shareable.

No JS? Fill the form by hand. The geolocation button needs JavaScript.